Location: Borea
(45.6167°N, 23.0167°E)
Time: 15:50:20
(UTC+00:00)

COSMOS 2428 - Visible Passes

Search period start: 30 September 2023 00:00
Search period end: 10 October 2023 00:00
Orbit: 846 x 855 km, 70.9° (Epoch: 30 September)

Date Brightness Start Highest point End Pass type
(mag) Time Alt. Az. Time Alt. Az. Time Alt. Az.
30 Sep 4.1 01:50:41 10° NNW 01:56:00 38° NE 02:01:17 10° ESE visible
30 Sep 3.2 03:35:01 10° NW 03:40:13 37° WSW 03:45:23 10° S visible
30 Sep 2.9 16:45:49 10° S 16:51:14 49° ESE 16:56:42 10° NE visible
30 Sep 4.5 18:30:46 10° WSW 18:35:42 30° NW 18:40:43 10° N visible
01 Oct 4.0 01:38:17 10° NNW 01:43:36 38° NE 01:48:53 10° ESE visible
01 Oct 3.2 03:22:38 10° NW 03:27:49 37° WSW 03:33:00 10° S visible
01 Oct 2.9 16:33:26 10° S 16:38:50 49° ESE 16:44:18 10° NE visible
01 Oct 4.5 18:18:21 10° WSW 18:23:19 30° NW 18:28:18 10° N visible
02 Oct 4.0 01:25:54 10° NNW 01:31:12 38° NE 01:36:30 10° ESE visible
02 Oct 3.2 03:10:14 10° NW 03:15:26 37° WSW 03:20:36 10° S visible
02 Oct 4.5 18:05:58 10° WSW 18:10:55 30° NW 18:15:55 10° N visible
03 Oct 4.0 01:13:30 10° NNW 01:18:49 38° NE 01:24:05 10° ESE visible
03 Oct 3.1 02:57:50 10° NW 03:03:02 37° WSW 03:08:13 10° S visible
03 Oct 4.6 17:53:34 10° WSW 17:58:32 31° NW 18:03:31 10° N visible
04 Oct 4.0 01:01:07 10° NNW 01:06:24 38° NE 01:11:41 10° ESE visible
04 Oct 3.1 02:45:26 10° NW 02:50:38 37° WSW 02:55:49 10° S visible
04 Oct 4.6 17:41:10 10° WSW 17:46:08 31° NW 17:51:08 10° N visible
05 Oct 4.6 00:48:43 10° NNW 00:57:10 21° ESE 00:59:17 10° ESE visible
05 Oct 3.4 02:39:34 33° SW 02:39:34 33° SW 02:43:26 10° S visible
05 Oct 4.6 17:28:45 10° WSW 17:33:44 31° NW 17:38:44 10° N visible
06 Oct 5.4 00:49:15 - SE 00:49:15 - SE 00:36:13 10° NNW visible
06 Oct5.002:31:28S02:31:28S02:18:06NNWvisible
06 Oct 4.6 17:16:21 10° WSW 17:21:20 31° NW 17:26:20 10° N visible
07 Oct 4.6 17:03:56 10° WSW 17:08:56 31° NW 17:13:57 10° N visible
08 Oct 4.6 16:51:33 10° WSW 16:56:31 31° NW 17:01:33 10° N visible
09 Oct 4.6 16:39:08 10° WSW 16:44:07 31° NW 16:49:09 10° N visible
